Weather History for KGHW - December, 2012

Change the Weather History Date:

Saturday, December 15, 2012

  Actual Average Record
Temperature  
Mean Temperature 28 °F -  
Max Temperature 33 °F 23 °F 49 °F (1959)
Min Temperature 23 °F 6 °F -20 °F (1961)
Degree Days  
Heating Degree Days 36    
Moisture  
Dew Point 31 °F    
Average Humidity 94    
Maximum Humidity 100    
Minimum Humidity 86    
Precipitation  
Precipitation 0.47 in - - ()
Sea Level Pressure  
Sea Level Pressure 29.59 in    
Wind  
Wind Speed 10 mph (NNE)    
Max Wind Speed 16 mph    
Max Gust Speed 20 mph    
Visibility 3 miles    
Events Snow    
Averages and records for this station are not official NWS values.
T = Trace of Precipitation, MM = Missing Value Source: NWS Daily Summary

Daily Weather History Graph

Daily Weather History Graph

Search for Another Location

Airport or City:

Trip Planner

Search our weather history database for the weather conditions in past years. The results will help you decide how hot, cold, wet, or windy it might be!

Date:

Astronomy

Dec. 15, 2012 Rise Set
Actual Time 7:55 AM CST 4:37 PM CST
Civil Twilight 7:21 AM CST 5:12 PM CST
Nautical Twilight 6:43 AM CST 5:50 PM CST
Astronomical Twilight 6:07 AM CST 6:26 PM CST
Moon 9:43 AM CST (12/15) 7:49 PM CST (12/15)
Length of Visible Light 9h 51m
Length of Day
8h 42m
Waxing Crescent, 8% of the Moon is Illuminated
Dec 15
Waxing Crescent
Dec 19
First Quarter
Dec 28
Full
Jan 4
Last Quarter
Jan 11
New

Hourly Weather History & Observations

Time (CST) Temp. Windchill Dew Point Humidity Pressure Visibility Wind Dir Wind Speed Gust Speed Precip Events Conditions
12:13 AM 28.4 °F 18.5 °F 26.6 °F 93% 29.71 in 10.0 mi East 11.5 mph - N/A   Clear
12:34 AM 30.2 °F 21.9 °F 26.6 °F 86% 29.69 in 10.0 mi East 9.2 mph - N/A   Clear
12:53 AM 30.2 °F 21.9 °F 26.6 °F 86% 29.69 in 7.0 mi East 9.2 mph - N/A   Scattered Clouds
1:13 AM 32.0 °F 23.0 °F 28.4 °F 87% 29.69 in 7.0 mi ESE 11.5 mph - N/A   Overcast
1:34 AM 32.0 °F 23.6 °F 30.2 °F 93% 29.68 in 7.0 mi East 10.4 mph - N/A   Overcast
1:53 AM 33.8 °F 25.3 °F 30.2 °F 87% 29.68 in 7.0 mi East 11.5 mph - N/A   Overcast
2:13 AM 33.8 °F 26.4 °F 30.2 °F 87% 29.67 in 7.0 mi East 9.2 mph - N/A   Overcast
2:34 AM 33.8 °F 27.0 °F 30.2 °F 87% 29.66 in 7.0 mi East 8.1 mph - N/A   Overcast
2:53 AM 33.8 °F 27.0 °F 30.2 °F 87% 29.65 in 7.0 mi East 8.1 mph - N/A   Overcast
3:13 AM 33.8 °F 25.8 °F 30.2 °F 87% 29.65 in 7.0 mi East 10.4 mph - N/A   Overcast
3:34 AM 33.8 °F 25.8 °F 30.2 °F 87% 29.65 in 7.0 mi East 10.4 mph - N/A   Overcast
3:53 AM 33.8 °F 24.8 °F 30.2 °F 87% 29.65 in 7.0 mi East 12.7 mph - N/A   Overcast
4:14 AM 33.8 °F 25.3 °F 30.2 °F 87% 29.64 in 7.0 mi ESE 11.5 mph - N/A   Overcast
4:34 AM 33.8 °F 25.3 °F 30.2 °F 87% 29.63 in 7.0 mi ESE 11.5 mph - N/A   Light Drizzle
4:53 AM 33.8 °F 26.4 °F 32.0 °F 93% 29.63 in 5.0 mi East 9.2 mph - N/A   Overcast
5:14 AM 33.8 °F 27.0 °F 32.0 °F 93% 29.62 in 5.0 mi East 8.1 mph - N/A   Overcast
5:34 AM 33.8 °F 26.4 °F 32.0 °F 93% 29.62 in 4.0 mi East 9.2 mph - N/A   Overcast
5:53 AM 33.8 °F 25.8 °F 32.0 °F 93% 29.62 in 3.0 mi East 10.4 mph - N/A   Overcast
6:14 AM 33.8 °F 25.3 °F 32.0 °F 93% 29.61 in 3.0 mi East 11.5 mph - 0.01 in   Overcast
6:33 AM 33.8 °F 25.8 °F 32.0 °F 93% 29.60 in 3.0 mi East 10.4 mph - 0.02 in   Mostly Cloudy
6:53 AM 33.8 °F 26.4 °F 32.0 °F 93% 29.60 in 2.5 mi ENE 9.2 mph - 0.05 in   Mostly Cloudy
7:14 AM 33.8 °F 26.4 °F 32.0 °F 93% 29.59 in 2.0 mi ENE 9.2 mph - 0.02 in   Overcast
7:33 AM 33.8 °F 26.4 °F 32.0 °F 93% 29.59 in 2.0 mi ENE 9.2 mph - 0.04 in   Overcast
7:53 AM 33.8 °F 25.8 °F 32.0 °F 93% 29.58 in 2.0 mi ENE 10.4 mph - 0.06 in   Overcast
8:14 AM 33.8 °F 26.4 °F 32.0 °F 93% 29.58 in 1.5 mi ENE 9.2 mph - 0.01 in   Overcast
8:33 AM 33.8 °F 25.8 °F 32.0 °F 93% 29.58 in 1.2 mi ENE 10.4 mph - 0.03 in   Overcast
8:53 AM 33.8 °F 25.8 °F 32.0 °F 93% 29.58 in 1.5 mi ENE 10.4 mph - 0.05 in   Overcast
9:13 AM 33.8 °F 26.4 °F 33.8 °F 100% 29.58 in 1.5 mi ENE 9.2 mph - 0.02 in   Overcast
9:33 AM 33.8 °F 27.0 °F 33.8 °F 100% 29.58 in 1.5 mi NE 8.1 mph - 0.06 in   Overcast
9:54 AM 33.8 °F 27.7 °F 32.0 °F 93% 29.58 in 1.2 mi NE 6.9 mph - 0.09 in Snow Light Snow
10:13 AM 33.8 °F 27.7 °F 32.0 °F 93% 29.58 in 1.0 mi NE 6.9 mph - 0.02 in Snow Light Snow
10:33 AM 33.8 °F 28.6 °F 32.0 °F 93% 29.58 in 0.8 mi NE 5.8 mph - 0.03 in Snow Light Snow
10:54 AM 33.8 °F 28.6 °F 32.0 °F 93% 29.57 in 1.0 mi NNE 5.8 mph - 0.05 in Snow Light Snow
11:13 AM 33.8 °F 27.7 °F 33.8 °F 100% 29.56 in 1.2 mi NNE 6.9 mph - 0.01 in Snow Light Snow
11:33 AM 33.8 °F 27.7 °F 32.0 °F 93% 29.55 in 1.5 mi NNE 6.9 mph - 0.01 in Snow Light Snow
11:54 AM 33.8 °F 27.7 °F 32.0 °F 93% 29.55 in 1.2 mi NNE 6.9 mph - 0.03 in Snow Light Snow
12:13 PM 33.8 °F 27.7 °F 32.0 °F 93% 29.54 in 1.0 mi North 6.9 mph - 0.01 in Snow Light Snow
12:54 PM 33.8 °F 28.6 °F 32.0 °F 93% 29.53 in 1.0 mi North 5.8 mph - 0.04 in Snow Light Snow
1:13 PM 33.8 °F 27.7 °F 32.0 °F 93% 29.52 in 1.2 mi North 6.9 mph - 0.01 in Snow Light Snow
1:54 PM 33.8 °F 28.6 °F 32.0 °F 93% 29.51 in 1.5 mi North 5.8 mph - 0.03 in Snow Light Snow
2:13 PM 33.8 °F 27.7 °F 32.0 °F 93% 29.51 in 1.5 mi North 6.9 mph - N/A Snow Light Snow
2:33 PM 33.8 °F 27.7 °F 32.0 °F 93% 29.51 in 1.8 mi North 6.9 mph - 0.01 in Snow Light Snow
2:54 PM 33.8 °F 27.7 °F 32.0 °F 93% 29.52 in 1.2 mi North 6.9 mph - 0.01 in Snow Light Snow
3:13 PM 33.8 °F 27.7 °F 32.0 °F 93% 29.52 in 1.8 mi North 6.9 mph - 0.01 in Snow Light Snow
3:33 PM 33.8 °F 27.7 °F 32.0 °F 93% 29.53 in 2.0 mi North 6.9 mph - 0.02 in Snow Light Snow
3:54 PM 33.8 °F 27.7 °F 32.0 °F 93% 29.53 in 2.5 mi North 6.9 mph - 0.02 in Snow Light Snow
4:13 PM 33.8 °F 27.7 °F 32.0 °F 93% 29.54 in 2.0 mi North 6.9 mph - N/A Snow Light Snow
4:33 PM 33.8 °F 28.6 °F 32.0 °F 93% 29.55 in 2.0 mi NNW 5.8 mph - N/A Snow Light Snow
4:54 PM 33.8 °F 28.6 °F 32.0 °F 93% 29.55 in 2.5 mi NNW 5.8 mph - N/A Snow Light Snow
5:13 PM 32.0 °F 26.4 °F 32.0 °F 100% 29.56 in 2.0 mi NW 5.8 mph - N/A Snow Light Snow
5:54 PM 32.0 °F 25.6 °F 32.0 °F 100% 29.56 in 1.8 mi NW 6.9 mph - 0.01 in Snow Light Snow
6:13 PM 33.8 °F 27.7 °F 32.0 °F 93% 29.57 in 2.0 mi NW 6.9 mph - 0.01 in Snow Light Snow
6:33 PM 32.0 °F 25.6 °F 32.0 °F 100% 29.57 in 1.8 mi NW 6.9 mph - 0.02 in Snow Light Snow
6:54 PM 32.0 °F 25.6 °F 32.0 °F 100% 29.58 in 2.0 mi NW 6.9 mph - 0.02 in Snow Light Snow
7:13 PM 32.0 °F 25.6 °F 32.0 °F 100% 29.58 in 3.0 mi NW 6.9 mph - 0.01 in Snow Light Snow
7:33 PM 32.0 °F 24.2 °F 32.0 °F 100% 29.58 in 4.0 mi WNW 9.2 mph - 0.01 in Snow Light Snow
7:54 PM 33.8 °F 25.3 °F 32.0 °F 93% 29.59 in 5.0 mi NW 11.5 mph - 0.01 in Snow Light Snow
8:13 PM 32.0 °F 22.5 °F 32.0 °F 100% 29.59 in 4.0 mi NW 12.7 mph - N/A   Overcast
8:33 PM 32.0 °F 23.0 °F 30.2 °F 93% 29.59 in 3.0 mi WNW 11.5 mph - N/A   Overcast
8:54 PM 30.2 °F 20.2 °F 30.2 °F 100% 29.59 in 2.5 mi WNW 12.7 mph - N/A   Overcast
9:13 PM 28.4 °F 17.0 °F 28.4 °F 100% 29.59 in 2.0 mi WNW 15.0 mph - N/A   Overcast
9:33 PM 28.4 °F 18.0 °F 26.6 °F 93% 29.60 in 2.0 mi WNW 12.7 mph - N/A   Overcast
9:54 PM 28.4 °F 18.0 °F 26.6 °F 93% 29.60 in 2.0 mi WNW 12.7 mph - N/A   Overcast
10:13 PM 26.6 °F 15.7 °F 26.6 °F 100% 29.60 in 2.0 mi WNW 12.7 mph - N/A   Overcast
10:33 PM 26.6 °F 14.3 °F 26.6 °F 100% 29.60 in 2.0 mi WNW 16.1 mph - N/A   Overcast
10:54 PM 26.6 °F 14.3 °F 24.8 °F 93% 29.60 in 2.0 mi WNW 16.1 mph - N/A   Overcast
11:13 PM 26.6 °F 14.7 °F 24.8 °F 93% 29.60 in 2.0 mi WNW 15.0 mph 19.6 mph N/A   Overcast
11:33 PM 24.8 °F 12.4 °F 24.8 °F 100% 29.60 in 1.8 mi WNW 15.0 mph - N/A   Overcast
11:54 PM 23.0 °F 10.6 °F 23.0 °F 100% 29.61 in 1.5 mi WNW 13.8 mph - N/A   Overcast